Location: Lake Almanor
(40.2485°N, 121.1442°W)
Time: 06:38:47
(UTC-08:00)

STARLINK-1079 - Pass Details

Date: 30 January 2020
Orbit: 348 x 351 km, 53.0° (Epoch: 28 February)

Event Time Altitude Azimuth Distance (km) Brightness Sun altitude
Rises 19:15:29 0° 308° (NW) 2,174 7.4 -22.1°
Reaches altitude 10° 19:17:30 10° 308° (NW) 1,326 6.2 -22.5°
Enters shadow 19:19:02 27° 305° (NW) 715 4.7 -22.7°
